Key statistics
Satellite CZ-6A DEB at a glance.
Uptime
750
Days in orbit
Revolutions
≈ 14.6
Per day
Orbit
SSO
Sun Synchronous Orbit
Inclination
98.7
Latest
Satellite identification and parameters
Extended collection of information and parameters for CZ-6A DEB.
Object identification
Identified? True
Debris? True
Object name: CZ-6A DEB
International designator: 2022-151VR
Object number (NORAD): 55200
Object ID (CCSDS): 55200
Country: PEOPLES REPUBLIC OF CHINA (PRC)
Current information (Y/N): Y
RCS size: SMALL
Orbital parameters
Decay date: Nov. 30, 2024
Period: 98.348 minutes
Inclination: 98.6763 deg
SMA: 7057.804 km
Apoapsis: 751.556 km
Periapsis: 607.782 km
RAAN: 74.041 deg
Eccentricy: 0.0101855
Argument of periapsis: 336.1899 deg
Mean anomaly: 23.4607 deg
Mean motion: 14.64193224 rev/day
Mean motion (dot): 0.0004382 rev/day2
B* drag term: 0.007684 1/REarth
Two-line elements (TLE)
Creation date: Feb. 11, 2024, 5:15 p.m.
Reference frame: TEME
Reference center: EARTH
Epoch: Feb. 11, 2024, 1:13 a.m. UTC
TLE line 0: 0 CZ-6A DEB
TLE line 1: 1 55200U 22151VR 24042.05102512 .00043820 00000-0 76840-2 0 9995
TLE line 2: 2 55200 98.6763 74.0410 0101855 336.1899 23.4607 14.64193224 65669
Live tracking on map
Satellite CZ-6A DEB has decayed and is no longer in orbit. No tracking available.
In-orbit conjunctions
Satellite CZ-6A DEB has decayed and is no longer in orbit. No conjunctions available.
Associated space launch
Chinese satellite reported for atmospheric/ocean/environmental/spatial parameter research purposes, details TBD.
CZ-6A DEB was lifted into orbit during the mission ‘Long March 6A | Yunhai 3’, on board a Long March 6A space rocket.
The launch took place on Nov. 11, 2022, 10:52 p.m. from Launch Complex 9A.
For more information about the launch, click the button.
Long March 6A | Yunhai 3
Agency: N/A
Status: Launch Successful
Launch date: Nov. 11, 2022, 10:52 p.m. UTC
Rocket: Long March 6A
Launch pad: Launch Complex 9A
Location: Taiyuan Satellite Launch Center, People's Republic of China
...
Latest news about this satellite
There are no fresh news available about this satellite. Check back as we update our databases every day.
Newsletter sign-up
Weekly statistics, charts and insights to help you stay on top of the space industry.
